ROMMA est une association bénévole à but non lucratif. Votre soutien est indispensable : ADHERER à ROMMA ou FAIRE un DON

Saint-Léger-les-Mélèzes - (05, Hautes-Alpes)

Champsaur (1245 m)   Longitude: 6° 11' 42" E    Latitude: 44° 38' 38" N Station partenaire n°51
 

Détail journalier du     <<     >>

Température Humidité Vent Dir Rafale Dir. rafale Ensol.
Heure (°C) (%) (km/h) (km/h) (min)
01:00 -3.2731SO10SSO0
02:00 -3.9761O10SO0
03:00 -4.9812ESE8SSE0
04:00 -4.4832S8SSE0
05:00 -4.7791ESE6SSO0
06:00 -5.0752S8S0
07:00 -5.1763SSO6SSO0
08:00 -5.3842S8S0
09:00 -5.3851S5S0
10:00 -3.88006S0
11:00 -2.4801SO8S0
12:00 -0.9761OSO10O30
13:00 -0.3772OSO10O10
14:00 0.4733OSO16OSO60
15:00 0.6732OSO10O20
16:00 0.1761SSO6OSO0
17:00 -0.2761OSO6O0
18:00 -1.28005SSO10
19:00 -1.9841SSO10E0
20:00 -2.8861S6SSE0
21:00 -3.1882SSO8OSO0
22:00 -3.8881SO13SSE0
23:00 -4.3901ESE6SSE0
minuit -4.7911S6SSE0

Graphique du 12-02-2019

 

Serveur OMMA